• In Hungary
  • List of Countries
  • For 7 days
  • Water Temperature
  • Satellite Maps
  • Weather Map
  • News
  • Weather Widgets
  • user-avatar
    Login

    Hourly Weather Krasnaya Zvezda

    Today, 24 June, Sunday

    Time Temperature Precipitation Wind Pressure Humidity
    00:00 +22°C° 0 mm 3 mps 748 mmHg 79%
    01:00 +21°C° 0 mm 3 mps 748 mmHg 80%
    02:00 +21°C° 0 mm 3 mps 748 mmHg 80%
    03:00 +21°C° 0 mm 4 mps 748 mmHg 78%
    04:00 +21°C° 0 mm 4 mps 747 mmHg 77%
    05:00 +22°C° 0 mm 4 mps 747 mmHg 77%
    06:00 +22°C° 0 mm 4 mps 747 mmHg 76%
    07:00 +25°C° 0 mm 5 mps 747 mmHg 71%
    08:00 +26°C° 0 mm 5 mps 748 mmHg 66%
    09:00 +28°C° 0 mm 5 mps 748 mmHg 61%
    10:00 +29°C° 0 mm 5 mps 748 mmHg 56%
    11:00 +30°C° 0 mm 6 mps 748 mmHg 51%
    12:00 +32°C° 0 mm 6 mps 748 mmHg 46%
    13:00 +32°C° 0 mm 6 mps 748 mmHg 46%
    14:00 +33°C° 0 mm 6 mps 748 mmHg 45%
    15:00 +33°C° 0 mm 6 mps 748 mmHg 45%
    16:00 +32°C° 0 mm 5 mps 748 mmHg 50%
    17:00 +30°C° 0 mm 4 mps 748 mmHg 55%
    18:00 +29°C° 0 mm 4 mps 748 mmHg 59%
    19:00 +27°C° 0.2 mm 4 mps 748 mmHg 67%
    20:00 +25°C° 0.2 mm 3 mps 749 mmHg 74%
    21:00 +22°C° 0.2 mm 3 mps 749 mmHg 81%
    22:00 +21°C° 0.9 mm 2 mps 749 mmHg 85%
    23:00 +21°C° 0.9 mm 2 mps 749 mmHg 88%

    Tomorrow, 25 June, Monday

    Time Temperature Precipitation Wind Pressure Humidity
    00:00 +21°C° 0.9 mm 1 mps 749 mmHg 92%
    01:00 +19°C° 0.8 mm 2 mps 750 mmHg 93%
    02:00 +19°C° 0.8 mm 2 mps 750 mmHg 93%
    03:00 +19°C° 0.8 mm 2 mps 750 mmHg 94%
    04:00 +18°C° 0.5 mm 3 mps 750 mmHg 94%
    05:00 +18°C° 0.5 mm 3 mps 751 mmHg 94%
    06:00 +17°C° 0.5 mm 3 mps 751 mmHg 95%
    07:00 +18°C° 0 mm 3 mps 751 mmHg 91%
    08:00 +19°C° 0 mm 3 mps 752 mmHg 87%
    09:00 +19°C° 0 mm 3 mps 752 mmHg 83%
    10:00 +21°C° 0 mm 3 mps 752 mmHg 76%
    11:00 +22°C° 0 mm 3 mps 753 mmHg 69%
    12:00 +24°C° 0 mm 3 mps 753 mmHg 63%
    13:00 +25°C° 0 mm 3 mps 753 mmHg 60%
    14:00 +25°C° 0 mm 3 mps 753 mmHg 57%
    15:00 +26°C° 0 mm 3 mps 753 mmHg 54%
    16:00 +25°C° 0 mm 3 mps 754 mmHg 57%
    17:00 +25°C° 0 mm 3 mps 754 mmHg 60%
    18:00 +25°C° 0 mm 2 mps 754 mmHg 62%
    19:00 +23°C° 0 mm 2 mps 754 mmHg 66%
    20:00 +20°C° 0 mm 2 mps 754 mmHg 71%
    21:00 +18°C° 0 mm 2 mps 754 mmHg 75%
    22:00 +18°C° 0 mm 2 mps 755 mmHg 76%
    23:00 +17°C° 0 mm 2 mps 755 mmHg 78%

    Day after tomorrow, 26 June, Tuesday

    Time Temperature Precipitation Wind Pressure Humidity
    00:00 +17°C° 0 mm 2 mps 755 mmHg 80%
    01:00 +16°C° 0 mm 2 mps 755 mmHg 82%
    02:00 +15°C° 0 mm 2 mps 755 mmHg 85%
    03:00 +15°C° 0 mm 2 mps 755 mmHg 88%
    04:00 +15°C° 0 mm 2 mps 755 mmHg 86%
    05:00 +16°C° 0 mm 2 mps 756 mmHg 84%
    06:00 +17°C° 0 mm 2 mps 756 mmHg 82%
    07:00 +19°C° 0 mm 3 mps 756 mmHg 78%
    08:00 +20°C° 0 mm 3 mps 756 mmHg 73%
    09:00 +22°C° 0 mm 3 mps 756 mmHg 69%
    10:00 +25°C° 0 mm 3 mps 756 mmHg 65%
    11:00 +26°C° 0 mm 3 mps 756 mmHg 61%
    12:00 +27°C° 0 mm 3 mps 756 mmHg 57%
    13:00 +28°C° 0 mm 3 mps 755 mmHg 56%
    14:00 +28°C° 0 mm 3 mps 755 mmHg 55%
    15:00 +28°C° 0 mm 3 mps 755 mmHg 54%
    16:00 +28°C° 0 mm 3 mps 755 mmHg 57%
    17:00 +28°C° 0 mm 3 mps 755 mmHg 61%
    18:00 +28°C° 0 mm 2 mps 755 mmHg 65%
    19:00 +26°C° 0 mm 2 mps 755 mmHg 69%
    20:00 +24°C° 0 mm 3 mps 755 mmHg 73%
    21:00 +22°C° 0 mm 3 mps 755 mmHg 78%
    22:00 +21°C° 0.6 mm 3 mps 755 mmHg 80%
    23:00 +20°C° 0.6 mm 3 mps 755 mmHg 83%

    27 June, Wednesday

    Time Temperature Precipitation Wind Pressure Humidity
    00:00 +20°C° 0.6 mm 3 mps 755 mmHg 86%
    01:00 +19°C° 0.4 mm 3 mps 755 mmHg 87%
    02:00 +19°C° 0.4 mm 3 mps 755 mmHg 87%
    03:00 +18°C° 0.4 mm 3 mps 755 mmHg 88%
    04:00 +19°C° 0.2 mm 3 mps 755 mmHg 89%
    05:00 +19°C° 0.2 mm 3 mps 755 mmHg 89%
    06:00 +19°C° 0.2 mm 3 mps 755 mmHg 89%
    07:00 +21°C° 0.1 mm 3 mps 755 mmHg 85%
    08:00 +22°C° 0.1 mm 3 mps 755 mmHg 82%
    09:00 +25°C° 0.1 mm 2 mps 755 mmHg 78%
    10:00 +26°C° 0.2 mm 2 mps 755 mmHg 74%
    11:00 +27°C° 0.2 mm 2 mps 755 mmHg 70%
    12:00 +28°C° 0.2 mm 2 mps 755 mmHg 66%
    13:00 +28°C° 0 mm 2 mps 755 mmHg 64%
    14:00 +29°C° 0 mm 2 mps 754 mmHg 61%
    15:00 +29°C° 0 mm 3 mps 754 mmHg 59%
    16:00 +29°C° 0.1 mm 3 mps 754 mmHg 63%
    17:00 +29°C° 0.1 mm 3 mps 754 mmHg 67%
    18:00 +28°C° 0.1 mm 3 mps 754 mmHg 71%
    19:00 +26°C° 0 mm 2 mps 755 mmHg 76%
    20:00 +25°C° 0 mm 2 mps 755 mmHg 81%
    21:00 +23°C° 0 mm 2 mps 755 mmHg 86%
    22:00 +21°C° 0 mm 2 mps 755 mmHg 88%
    23:00 +21°C° 0 mm 2 mps 755 mmHg 90%

    28 June, Thursday

    Time Temperature Precipitation Wind Pressure Humidity
    00:00 +20°C° 0 mm 2 mps 755 mmHg 92%
    01:00 +20°C° 0 mm 2 mps 755 mmHg 93%
    02:00 +19°C° 0 mm 2 mps 755 mmHg 93%
    03:00 +19°C° 0 mm 2 mps 755 mmHg 94%
    04:00 +20°C° 0 mm 2 mps 756 mmHg 92%
    05:00 +20°C° 0 mm 2 mps 756 mmHg 89%
    06:00 +21°C° 0 mm 2 mps 756 mmHg 87%
    07:00 +22°C° 0 mm 3 mps 756 mmHg 81%
    08:00 +25°C° 0 mm 3 mps 756 mmHg 75%
    09:00 +27°C° 0 mm 3 mps 756 mmHg 69%
    10:00 +28°C° 0.1 mm 3 mps 756 mmHg 65%
    11:00 +29°C° 0.1 mm 3 mps 756 mmHg 61%
    12:00 +30°C° 0.1 mm 4 mps 756 mmHg 57%
    13:00 +30°C° 0.4 mm 4 mps 755 mmHg 57%
    14:00 +30°C° 0.4 mm 4 mps 755 mmHg 56%
    15:00 +30°C° 0.4 mm 4 mps 755 mmHg 56%
    16:00 +30°C° 0 mm 4 mps 755 mmHg 58%
    17:00 +30°C° 0 mm 3 mps 755 mmHg 60%
    18:00 +29°C° 0 mm 3 mps 755 mmHg 62%
    19:00 +27°C° 0 mm 3 mps 755 mmHg 67%
    20:00 +25°C° 0 mm 3 mps 755 mmHg 71%
    21:00 +22°C° 0 mm 3 mps 755 mmHg 75%
    22:00 +22°C° 0 mm 3 mps 755 mmHg 77%
    23:00 +21°C° 0 mm 3 mps 755 mmHg 79%

    29 June, Friday

    Time Temperature Precipitation Wind Pressure Humidity
    00:00 +20°C° 0 mm 3 mps 755 mmHg 81%
    01:00 +19°C° 0 mm 3 mps 755 mmHg 82%
    02:00 +18°C° 0 mm 2 mps 755 mmHg 83%
    03:00 +18°C° 0 mm 2 mps 755 mmHg 84%
    04:00 +19°C° 0 mm 3 mps 755 mmHg 83%
    05:00 +19°C° 0 mm 3 mps 755 mmHg 81%
    06:00 +20°C° 0 mm 4 mps 755 mmHg 79%
    07:00 +22°C° 0 mm 4 mps 754 mmHg 75%
    08:00 +25°C° 0 mm 4 mps 754 mmHg 70%
    09:00 +27°C° 0 mm 4 mps 754 mmHg 66%
    10:00 +28°C° 0 mm 5 mps 754 mmHg 62%
    11:00 +29°C° 0 mm 5 mps 754 mmHg 58%
    12:00 +30°C° 0 mm 5 mps 754 mmHg 54%
    13:00 +30°C° 0 mm 5 mps 754 mmHg 53%
    14:00 +30°C° 0 mm 5 mps 754 mmHg 51%
    15:00 +30°C° 0 mm 5 mps 754 mmHg 50%
    16:00 +30°C° 0 mm 4 mps 753 mmHg 54%
    17:00 +29°C° 0 mm 4 mps 753 mmHg 58%
    18:00 +29°C° 0 mm 4 mps 752 mmHg 62%
    19:00 +27°C° 0 mm 4 mps 752 mmHg 66%
    20:00 +25°C° 0 mm 4 mps 752 mmHg 71%
    21:00 +23°C° 0 mm 4 mps 752 mmHg 75%
    22:00 +22°C° 0.3 mm 4 mps 752 mmHg 78%
    23:00 +21°C° 0.3 mm 3 mps 752 mmHg 81%
    Show more